Time,TemperatureF,DewpointF,PressureIn,WindDirection,WindDirectionDegrees,WindSpeedMPH,WindSpeedGustMPH,Humidity,HourlyPrecipIn,Conditions,Clouds,dailyrainin,SoftwareType,DateUTC
2013-07-30 00:03:00,83.3,58.5,29.97,SW,235,8.1,8.1,43,0.00,CLR,,0.00,WeatherDisplay:10.37,2013-07-30 05:03:00,
2013-07-30 00:08:00,83.7,58.1,29.97,WSW,244,5.8,5.8,42,0.00,CLR,,0.00,WeatherDisplay:10.37,2013-07-30 05:08:00,
2013-07-30 00:13:00,83.7,57.5,29.97,WSW,250,9.2,9.2,41,0.00,CLR,,0.00,WeatherDisplay:10.37,2013-07-30 05:13:00,
2013-07-30 00:18:00,83.8,56.9,29.97,SSW,200,9.2,9.2,40,0.00,CLR,,0.00,WeatherDisplay:10.37,2013-07-30 05:18:00,
2013-07-30 00:23:00,83.8,56.9,29.97,WSW,240,9.2,9.2,40,0.00,CLR,,0.00,WeatherDisplay:10.37,2013-07-30 05:23:00,
2013-07-30 00:28:00,83.7,56.8,29.97,South,179,8.1,8.1,40,0.00,CLR,,0.00,WeatherDisplay:10.37,2013-07-30 05:28:00,
2013-07-30 00:33:00,83.7,56.1,29.97,WSW,255,8.1,8.1,39,0.00,CLR,,0.00,WeatherDisplay:10.37,2013-07-30 05:33:00,
2013-07-30 00:38:00,83.7,56.1,29.97,SW,235,8.3,8.3,39,0.00,CLR,,0.00,WeatherDisplay:10.37,2013-07-30 05:38:00,
2013-07-30 00:43:00,83.5,55.9,29.97,SW,227,8.1,8.1,39,0.00,CLR,,0.00,WeatherDisplay:10.37,2013-07-30 05:43:00,
2013-07-30 00:48:00,83.5,55.9,29.97,SSE,156,10.4,10.4,39,0.00,CLR,,0.00,WeatherDisplay:10.37,2013-07-30 05:48:00,
2013-07-30 00:53:00,83.5,55.9,29.97,SW,226,9.2,9.2,39,0.00,CLR,,0.00,WeatherDisplay:10.37,2013-07-30 05:53:00,
2013-07-30 00:58:00,83.5,55.9,30.00,SW,230,12.7,12.7,39,0.00,CLR,,0.00,WeatherDisplay:10.37,2013-07-30 05:58:00,
2013-07-30 01:03:00,83.5,55.9,30.00,SW,214,8.1,8.1,39,0.00,CLR,,0.00,WeatherDisplay:10.37,2013-07-30 06:03:00,
2013-07-30 01:08:00,83.3,56.5,30.00,WSW,238,11.5,11.5,40,0.00,CLR,,0.00,WeatherDisplay:10.37,2013-07-30 06:08:00,
2013-07-30 01:13:00,83.1,56.3,30.00,SW,224,9.2,9.2,40,0.00,CLR,,0.00,WeatherDisplay:10.37,2013-07-30 06:13:00,
2013-07-30 01:18:00,82.9,56.1,30.00,West,260,8.1,8.1,40,0.00,CLR,,0.00,WeatherDisplay:10.37,2013-07-30 06:18:00,
2013-07-30 01:23:00,82.8,56.0,30.00,SW,224,8.1,8.1,40,0.00,CLR,,0.00,WeatherDisplay:10.37,2013-07-30 06:23:00,
2013-07-30 01:28:00,82.8,56.0,29.97,WSW,253,8.1,8.1,40,0.00,CLR,,0.00,WeatherDisplay:10.37,2013-07-30 06:28:00,
2013-07-30 01:33:00,82.6,56.5,29.97,West,264,8.1,8.1,41,0.00,CLR,,0.00,WeatherDisplay:10.37,2013-07-30 06:33:00,
2013-07-30 01:38:00,82.4,56.3,29.97,West,264,9.2,9.2,41,0.00,CLR,,0.00,WeatherDisplay:10.37,2013-07-30 06:38:00,
2013-07-30 01:43:00,82.4,56.3,29.97,WSW,246,10.4,10.4,41,0.00,CLR,,0.00,WeatherDisplay:10.37,2013-07-30 06:43:00,
2013-07-30 01:48:00,82.2,56.8,29.97,WSW,240,8.1,8.1,42,0.00,CLR,,0.00,WeatherDisplay:10.37,2013-07-30 06:48:00,
2013-07-30 01:53:00,82.2,56.8,29.97,WSW,241,9.2,9.2,42,0.00,CLR,,0.00,WeatherDisplay:10.37,2013-07-30 06:53:00,
2013-07-30 01:58:00,82.2,56.8,29.97,WSW,245,10.9,10.9,42,0.00,CLR,,0.00,WeatherDisplay:10.37,2013-07-30 06:58:00,
2013-07-30 02:03:00,82.0,57.3,29.97,West,261,10.4,10.4,43,0.00,CLR,,0.00,WeatherDisplay:10.37,2013-07-30 07:03:00,
2013-07-30 02:08:00,82.0,57.3,29.97,WSW,241,8.1,8.1,43,0.00,CLR,,0.00,WeatherDisplay:10.37,2013-07-30 07:08:00,
2013-07-30 02:13:00,81.9,57.2,29.97,WSW,249,5.8,6.7,43,0.00,CLR,,0.00,WeatherDisplay:10.37,2013-07-30 07:13:00,
2013-07-30 02:18:00,81.9,57.8,29.97,WSW,241,11.5,11.5,44,0.00,CLR,,0.00,WeatherDisplay:10.37,2013-07-30 07:18:00,
2013-07-30 02:23:00,81.7,57.6,29.97,WSW,251,8.1,8.1,44,0.00,CLR,,0.00,WeatherDisplay:10.37,2013-07-30 07:23:00,
2013-07-30 02:28:00,81.7,58.3,29.97,WSW,237,9.2,9.2,45,0.00,CLR,,0.00,WeatherDisplay:10.37,2013-07-30 07:28:00,
2013-07-30 02:33:00,81.5,58.1,29.97,SW,232,8.1,8.1,45,0.00,CLR,,0.00,WeatherDisplay:10.37,2013-07-30 07:33:00,
2013-07-30 02:38:00,81.5,58.7,29.97,West,273,8.1,8.1,46,0.00,CLR,,0.00,WeatherDisplay:10.37,2013-07-30 07:38:00,
2013-07-30 02:44:00,81.5,58.7,29.97,WSW,247,8.1,8.1,46,0.00,CLR,,0.00,WeatherDisplay:10.37,2013-07-30 07:44:00,
2013-07-30 02:49:00,81.3,59.2,29.97,SSE,164,9.2,9.2,47,0.00,CLR,,0.00,WeatherDisplay:10.37,2013-07-30 07:49:00,
2013-07-30 02:54:00,81.3,59.2,29.97,SSW,210,11.5,11.5,47,0.00,CLR,,0.00,WeatherDisplay:10.37,2013-07-30 07:54:00,
2013-07-30 02:59:00,81.3,59.8,30.00,WSW,247,9.2,9.2,48,0.00,CLR,,0.00,WeatherDisplay:10.37,2013-07-30 07:59:00,
2013-07-30 03:04:00,81.1,60.2,30.00,SW,233,10.4,10.4,49,0.00,CLR,,0.00,WeatherDisplay:10.37,2013-07-30 08:04:00,
2013-07-30 03:09:00,81.1,60.2,30.00,SW,214,8.1,8.1,49,0.00,CLR,,0.00,WeatherDisplay:10.37,2013-07-30 08:09:00,
2013-07-30 03:14:00,81.0,60.6,30.00,WSW,237,10.4,10.4,50,0.00,CLR,,0.00,WeatherDisplay:10.37,2013-07-30 08:14:00,
2013-07-30 03:19:00,81.0,61.1,30.00,SW,215,9.2,9.2,51,0.00,CLR,,0.00,WeatherDisplay:10.37,2013-07-30 08:19:00,
2013-07-30 03:24:00,81.1,61.3,30.00,SW,223,11.5,11.5,51,0.00,CLR,,0.00,WeatherDisplay:10.37,2013-07-30 08:24:00,
2013-07-30 03:29:00,81.0,61.1,30.00,South,182,5.8,5.8,51,0.00,CLR,,0.00,WeatherDisplay:10.37,2013-07-30 08:29:00,
2013-07-30 03:34:00,80.8,61.5,30.00,SW,234,10.4,10.4,52,0.00,CLR,,0.00,WeatherDisplay:10.37,2013-07-30 08:34:00,
2013-07-30 03:39:00,80.8,61.5,30.00,WSW,242,9.2,9.2,52,0.00,CLR,,0.00,WeatherDisplay:10.37,2013-07-30 08:39:00,
2013-07-30 03:44:00,80.6,61.9,30.00,SW,232,10.4,10.4,53,0.00,CLR,,0.00,WeatherDisplay:10.37,2013-07-30 08:44:00,
2013-07-30 03:49:00,80.8,62.6,30.00,South,180,10.4,10.4,54,0.00,CLR,,0.00,WeatherDisplay:10.37,2013-07-30 08:49:00,
2013-07-30 03:54:00,80.8,63.1,30.00,SW,225,10.4,10.4,55,0.00,CLR,,0.00,WeatherDisplay:10.37,2013-07-30 08:54:00,
2013-07-30 03:59:00,80.6,62.9,30.00,West,260,8.7,8.7,55,0.00,CLR,,0.00,WeatherDisplay:10.37,2013-07-30 08:59:00,
2013-07-30 04:04:00,80.4,63.8,30.00,SSW,203,9.2,9.2,57,0.00,CLR,,0.00,WeatherDisplay:10.37,2013-07-30 09:04:00,
2013-07-30 04:09:00,80.4,64.3,30.00,WSW,241,10.5,10.5,58,0.00,CLR,,0.00,WeatherDisplay:10.37,2013-07-30 09:09:00,
2013-07-30 04:14:00,80.2,64.6,30.00,South,184,10.9,10.9,59,0.00,CLR,,0.00,WeatherDisplay:10.37,2013-07-30 09:14:00,
2013-07-30 04:19:00,80.2,65.1,30.00,SSW,200,11.5,11.5,60,0.00,CLR,,0.00,WeatherDisplay:10.37,2013-07-30 09:19:00,
2013-07-30 04:24:00,80.2,65.1,30.00,SW,219,9.2,9.2,60,0.00,CLR,,0.00,WeatherDisplay:10.37,2013-07-30 09:24:00,
2013-07-30 04:29:00,80.1,65.4,30.00,SW,218,10.4,10.4,61,0.00,CLR,,0.00,WeatherDisplay:10.37,2013-07-30 09:29:00,
2013-07-30 04:34:00,80.1,65.9,30.00,WSW,252,8.1,8.1,62,0.00,CLR,,0.00,WeatherDisplay:10.37,2013-07-30 09:34:00,
2013-07-30 04:39:00,79.9,66.2,30.00,SW,228,8.1,8.1,63,0.00,CLR,,0.00,WeatherDisplay:10.37,2013-07-30 09:39:00,
2013-07-30 04:44:00,79.9,66.6,30.00,WSW,239,5.8,5.8,64,0.00,CLR,,0.00,WeatherDisplay:10.37,2013-07-30 09:44:00,
2013-07-30 04:49:00,79.7,66.4,30.00,SSW,194,9.2,9.2,64,0.00,CLR,,0.00,WeatherDisplay:10.37,2013-07-30 09:49:00,
2013-07-30 04:54:00,79.7,66.9,30.00,SSW,208,10.1,10.1,65,0.00,CLR,,0.00,WeatherDisplay:10.37,2013-07-30 09:54:00,
2013-07-30 04:59:00,79.5,67.2,30.00,WSW,246,8.1,8.1,66,0.00,CLR,,0.00,WeatherDisplay:10.37,2013-07-30 09:59:00,
2013-07-30 05:04:00,79.5,67.6,30.00,SSW,195,11.5,11.5,67,0.00,CLR,,0.00,WeatherDisplay:10.37,2013-07-30 10:04:00,
2013-07-30 05:09:00,79.5,68.0,30.00,WSW,245,8.3,8.3,68,0.00,CLR,,0.00,WeatherDisplay:10.37,2013-07-30 10:09:00,
2013-07-30 05:14:00,79.5,68.0,30.03,SW,236,10.4,10.4,68,0.00,CLR,,0.00,WeatherDisplay:10.37,2013-07-30 10:14:00,
2013-07-30 05:19:00,79.3,67.9,30.03,SW,220,10.4,10.4,68,0.00,CLR,,0.00,WeatherDisplay:10.37,2013-07-30 10:19:00,
2013-07-30 05:24:00,79.3,68.3,30.03,SW,216,8.1,8.1,69,0.00,CLR,,0.00,WeatherDisplay:10.37,2013-07-30 10:24:00,
2013-07-30 05:29:00,79.3,68.3,30.03,SSW,211,8.1,8.1,69,0.00,CLR,,0.00,WeatherDisplay:10.37,2013-07-30 10:29:00,
2013-07-30 05:34:00,79.2,68.1,30.03,WSW,238,8.1,8.1,69,0.00,CLR,,0.00,WeatherDisplay:10.37,2013-07-30 10:34:00,
2013-07-30 05:39:00,79.2,68.5,30.03,SSW,193,9.2,9.2,70,0.00,CLR,,0.00,WeatherDisplay:10.37,2013-07-30 10:39:00,
2013-07-30 05:44:00,79.2,68.5,30.03,SW,229,8.1,8.1,70,0.00,CLR,,0.00,WeatherDisplay:10.37,2013-07-30 10:44:00,
2013-07-30 05:49:00,79.0,69.2,30.03,SW,223,8.1,8.1,72,0.00,CLR,,0.00,WeatherDisplay:10.37,2013-07-30 10:49:00,
2013-07-30 05:54:00,79.0,69.2,30.03,WSW,252,12.7,12.7,72,0.00,CLR,,0.00,WeatherDisplay:10.37,2013-07-30 10:54:00,
2013-07-30 05:59:00,78.8,69.4,30.03,West,259,8.1,8.1,73,0.00,CLR,,0.00,WeatherDisplay:10.37,2013-07-30 10:59:00,
2013-07-30 06:04:00,78.8,69.4,30.03,SSW,208,6.9,6.9,73,0.00,CLR,,0.00,WeatherDisplay:10.37,2013-07-30 11:04:00,
2013-07-30 06:09:00,78.8,69.8,30.03,WSW,247,8.1,8.1,74,0.00,CLR,,0.00,WeatherDisplay:10.37,2013-07-30 11:09:00,
2013-07-30 06:14:00,78.6,69.6,30.03,SSW,196,9.2,9.2,74,0.00,CLR,,0.00,WeatherDisplay:10.37,2013-07-30 11:14:00,
2013-07-30 06:19:00,78.6,70.0,30.03,WSW,237,8.1,8.1,75,0.00,CLR,,0.00,WeatherDisplay:10.37,2013-07-30 11:19:00,
2013-07-30 06:24:00,78.6,70.0,30.03,South,190,5.8,5.8,75,0.00,CLR,,0.00,WeatherDisplay:10.37,2013-07-30 11:24:00,
2013-07-30 06:29:00,78.6,70.0,30.06,WSW,242,4.6,4.6,75,0.00,CLR,,0.00,WeatherDisplay:10.37,2013-07-30 11:29:00,
2013-07-30 06:34:00,78.6,70.0,30.06,SSE,164,4.6,4.6,75,0.00,CLR,,0.00,WeatherDisplay:10.37,2013-07-30 11:34:00,
2013-07-30 06:39:00,78.6,70.4,30.06,South,187,5.8,5.8,76,0.00,CLR,,0.00,WeatherDisplay:10.37,2013-07-30 11:39:00,
2013-07-30 06:44:00,78.4,70.2,30.06,SSW,203,4.6,4.6,76,0.00,CLR,,0.00,WeatherDisplay:10.37,2013-07-30 11:44:00,
2013-07-30 06:49:00,78.6,70.4,30.06,SSW,201,3.5,3.5,76,0.00,CLR,,0.00,WeatherDisplay:10.37,2013-07-30 11:49:00,
2013-07-30 06:54:00,78.6,70.8,30.06,SSW,192,4.6,4.6,77,0.00,CLR,,0.00,WeatherDisplay:10.37,2013-07-30 11:54:00,
2013-07-30 06:59:00,78.6,70.8,30.09,SW,217,3.6,3.6,77,0.00,CLR,,0.00,WeatherDisplay:10.37,2013-07-30 11:59:00,
2013-07-30 07:04:00,78.6,70.8,30.09,SSW,213,3.5,3.5,77,0.00,CLR,,0.00,WeatherDisplay:10.37,2013-07-30 12:04:00,
2013-07-30 07:09:00,78.6,70.8,30.09,South,185,5.8,5.8,77,0.00,CLR,,0.00,WeatherDisplay:10.37,2013-07-30 12:09:00,
2013-07-30 07:14:00,78.6,70.8,30.09,SSE,167,5.8,5.8,77,0.00,CLR,,0.00,WeatherDisplay:10.37,2013-07-30 12:14:00,
2013-07-30 07:19:00,78.6,70.8,30.09,SE,140,5.8,5.8,77,0.00,CLR,,0.00,WeatherDisplay:10.37,2013-07-30 12:19:00,
2013-07-30 07:24:00,78.8,71.0,30.09,SW,230,3.5,3.5,77,0.00,CLR,,0.00,WeatherDisplay:10.37,2013-07-30 12:24:00,
2013-07-30 07:29:00,78.8,71.0,30.09,WSW,238,4.6,4.6,77,0.00,CLR,,0.00,WeatherDisplay:10.37,2013-07-30 12:29:00,
2013-07-30 07:34:00,78.8,71.0,30.09,SW,216,2.3,2.3,77,0.00,CLR,,0.00,WeatherDisplay:10.37,2013-07-30 12:34:00,
2013-07-30 07:39:00,79.0,71.2,30.09,WSW,249,3.5,0.0,77,0.00,CLR,,0.00,WeatherDisplay:10.37,2013-07-30 12:39:00,
2013-07-30 07:44:00,79.0,71.2,30.09,SW,214,2.3,0.0,77,0.00,CLR,,0.00,WeatherDisplay:10.37,2013-07-30 12:44:00,
2013-07-30 07:49:00,79.0,71.2,30.09,SSW,192,3.5,3.5,77,0.00,CLR,,0.00,WeatherDisplay:10.37,2013-07-30 12:49:00,
2013-07-30 07:54:00,79.3,71.5,30.09,WSW,254,5.8,5.8,77,0.00,CLR,,0.00,WeatherDisplay:10.37,2013-07-30 12:54:00,
2013-07-30 07:59:00,79.3,71.5,30.09,SW,221,3.5,3.5,77,0.00,CLR,,0.00,WeatherDisplay:10.37,2013-07-30 12:59:00,
2013-07-30 08:04:00,79.7,72.2,30.09,SW,225,3.6,3.6,78,0.00,CLR,,0.00,WeatherDisplay:10.37,2013-07-30 13:04:00,
2013-07-30 08:09:00,79.9,72.0,30.09,SW,227,4.6,4.6,77,0.00,CLR,,0.00,WeatherDisplay:10.37,2013-07-30 13:09:00,
2013-07-30 08:14:00,80.1,72.2,30.09,SSW,212,2.0,5.0,77,0.00,CLR,,0.00,WeatherDisplay:10.37,2013-07-30 13:14:00,
2013-07-30 08:19:00,80.2,72.4,30.09,South,184,4.6,4.6,77,0.00,CLR,,0.00,WeatherDisplay:10.37,2013-07-30 13:19:00,
2013-07-30 08:24:00,80.4,72.5,30.09,SW,229,3.0,8.0,77,0.00,CLR,,0.00,WeatherDisplay:10.37,2013-07-30 13:24:00,
2013-07-30 08:29:00,80.4,72.5,30.09,SW,219,5.0,9.0,77,0.00,CLR,,0.00,WeatherDisplay:10.37,2013-07-30 13:29:00,
2013-07-30 08:34:00,80.6,72.3,30.09,WSW,255,5.8,5.8,76,0.00,CLR,,0.00,WeatherDisplay:10.37,2013-07-30 13:34:00,
2013-07-30 08:39:00,80.6,72.3,30.09,SW,233,5.8,5.8,76,0.00,CLR,,0.00,WeatherDisplay:10.37,2013-07-30 13:39:00,
2013-07-30 08:44:00,80.8,72.5,30.09,SW,214,5.0,6.0,76,0.00,CLR,,0.00,WeatherDisplay:10.37,2013-07-30 13:44:00,
2013-07-30 08:49:00,81.1,72.9,30.09,SW,230,5.8,5.8,76,0.00,CLR,,0.00,WeatherDisplay:10.37,2013-07-30 13:49:00,
2013-07-30 08:54:00,81.0,72.3,30.09,South,187,6.9,6.9,75,0.00,CLR,,0.00,WeatherDisplay:10.37,2013-07-30 13:54:00,
2013-07-30 08:59:00,81.0,72.3,30.09,SW,228,6.0,9.0,75,0.00,CLR,,0.00,WeatherDisplay:10.37,2013-07-30 13:59:00,
2013-07-30 09:04:00,81.1,72.5,30.09,SSE,156,10.4,10.4,75,0.00,CLR,,0.00,WeatherDisplay:10.37,2013-07-30 14:04:00,
2013-07-30 09:09:00,81.5,72.4,30.09,SW,222,5.0,8.0,74,0.00,CLR,,0.00,WeatherDisplay:10.37,2013-07-30 14:09:00,
2013-07-30 09:14:00,82.2,73.1,30.09,West,260,8.1,8.1,74,0.00,CLR,,0.00,WeatherDisplay:10.37,2013-07-30 14:14:00,
2013-07-30 09:19:00,82.4,72.5,30.09,SW,228,5.0,9.0,72,0.00,CLR,,0.00,WeatherDisplay:10.37,2013-07-30 14:19:00,
2013-07-30 09:24:00,82.9,73.0,30.09,SW,228,8.0,12.0,72,0.00,CLR,,0.00,WeatherDisplay:10.37,2013-07-30 14:24:00,
2013-07-30 09:29:00,83.3,72.9,30.09,South,180,8.3,8.3,71,0.00,CLR,,0.00,WeatherDisplay:10.37,2013-07-30 14:29:00,
2013-07-30 09:34:00,83.1,72.3,30.09,SW,218,6.0,9.0,70,0.00,CLR,,0.00,WeatherDisplay:10.37,2013-07-30 14:34:00,
2013-07-30 09:39:00,82.8,71.6,30.09,SW,217,7.0,12.0,69,0.00,CLR,,0.00,WeatherDisplay:10.37,2013-07-30 14:39:00,
2013-07-30 09:44:00,83.5,71.8,30.09,SW,220,11.5,11.5,68,0.00,CLR,,0.00,WeatherDisplay:10.37,2013-07-30 14:44:00,
2013-07-30 09:49:00,83.8,71.7,30.09,South,176,12.7,12.7,67,0.00,CLR,,0.00,WeatherDisplay:10.37,2013-07-30 14:49:00,
2013-07-30 09:54:00,84.2,71.6,30.09,SSW,204,9.0,11.0,66,0.00,CLR,,0.00,WeatherDisplay:10.37,2013-07-30 14:54:00,
2013-07-30 09:59:00,84.6,71.5,30.06,SSE,166,11.5,11.5,65,0.00,CLR,,0.00,WeatherDisplay:10.37,2013-07-30 14:59:00,
2013-07-30 10:04:00,84.7,71.2,30.06,SSW,203,9.0,13.0,64,0.00,CLR,,0.00,WeatherDisplay:10.37,2013-07-30 15:04:00,
2013-07-30 10:09:00,84.7,71.2,30.06,SSW,208,9.0,13.0,64,0.00,CLR,,0.00,WeatherDisplay:10.37,2013-07-30 15:09:00,
2013-07-30 10:14:00,84.6,70.6,30.06,SSW,209,10.4,10.4,63,0.00,CLR,,0.00,WeatherDisplay:10.37,2013-07-30 15:14:00,
2013-07-30 10:19:00,85.1,72.0,30.06,SW,221,9.0,14.0,65,0.00,CLR,,0.00,WeatherDisplay:10.37,2013-07-30 15:19:00,
2013-07-30 10:24:00,85.5,71.4,30.06,SW,227,8.0,13.0,63,0.00,CLR,,0.00,WeatherDisplay:10.37,2013-07-30 15:24:00,
2013-07-30 10:29:00,85.8,71.8,30.06,SSW,211,10.1,10.1,63,0.00,CLR,,0.00,WeatherDisplay:10.37,2013-07-30 15:29:00,
2013-07-30 10:34:00,85.8,70.8,30.06,SW,216,8.0,11.0,61,0.00,CLR,,0.00,WeatherDisplay:10.37,2013-07-30 15:34:00,
2013-07-30 10:39:00,86.0,70.5,30.06,South,190,9.2,9.2,60,0.00,CLR,,0.00,WeatherDisplay:10.37,2013-07-30 15:39:00,
2013-07-30 10:44:00,86.0,70.0,30.06,SW,236,8.0,13.0,59,0.00,CLR,,0.00,WeatherDisplay:10.37,2013-07-30 15:44:00,
2013-07-30 10:49:00,86.0,70.5,30.06,SW,221,8.1,8.1,60,0.00,CLR,,0.00,WeatherDisplay:10.37,2013-07-30 15:49:00,
2013-07-30 10:54:00,85.8,69.8,30.06,SW,222,6.0,10.0,59,0.00,CLR,,0.00,WeatherDisplay:10.37,2013-07-30 15:54:00,
2013-07-30 10:59:00,86.0,70.5,30.06,SW,225,10.0,15.0,60,0.00,CLR,,0.00,WeatherDisplay:10.37,2013-07-30 15:59:00,
2013-07-30 11:04:00,86.2,70.2,30.06,SW,227,10.0,15.0,59,0.00,CLR,,0.00,WeatherDisplay:10.37,2013-07-30 16:04:00,
2013-07-30 11:09:00,86.4,70.8,30.06,ESE,106,10.4,10.4,60,0.00,CLR,,0.00,WeatherDisplay:10.37,2013-07-30 16:09:00,
2013-07-30 11:14:00,86.5,70.5,30.06,South,176,11.5,11.5,59,0.00,CLR,,0.00,WeatherDisplay:10.37,2013-07-30 16:14:00,
2013-07-30 11:19:00,86.5,70.0,30.06,SSW,212,10.0,14.0,58,0.00,CLR,,0.00,WeatherDisplay:10.37,2013-07-30 16:19:00,
2013-07-30 11:24:00,86.5,70.0,30.06,West,275,17.3,17.3,58,0.00,CLR,,0.00,WeatherDisplay:10.37,2013-07-30 16:24:00,
2013-07-30 11:29:00,86.9,70.8,30.06,SW,222,12.7,12.7,59,0.00,CLR,,0.00,WeatherDisplay:10.37,2013-07-30 16:29:00,
2013-07-30 11:34:00,86.9,69.8,30.06,SW,215,8.0,12.0,57,0.00,CLR,,0.00,WeatherDisplay:10.37,2013-07-30 16:34:00,
2013-07-30 11:39:00,87.2,69.6,30.06,SSW,213,10.0,15.0,56,0.00,CLR,,0.00,WeatherDisplay:10.37,2013-07-30 16:39:00,
2013-07-30 11:44:00,87.4,70.3,30.06,NW,305,10.4,10.4,57,0.00,CLR,,0.00,WeatherDisplay:10.37,2013-07-30 16:44:00,
2013-07-30 11:49:00,87.6,70.0,30.06,SW,215,7.0,13.0,56,0.00,CLR,,0.00,WeatherDisplay:10.37,2013-07-30 16:49:00,
2013-07-30 11:54:00,87.6,69.5,30.06,WSW,237,6.0,13.0,55,0.00,CLR,,0.00,WeatherDisplay:10.37,2013-07-30 16:54:00,
2013-07-30 11:59:00,88.2,70.0,30.06,WSW,237,8.3,8.3,55,0.00,CLR,,0.00,WeatherDisplay:10.37,2013-07-30 16:59:00,
2013-07-30 12:04:00,88.3,70.1,30.06,SW,220,10.4,10.4,55,0.00,CLR,,0.00,WeatherDisplay:10.37,2013-07-30 17:04:00,
2013-07-30 12:09:00,88.5,69.7,30.06,SW,225,6.0,9.0,54,0.00,CLR,,0.00,WeatherDisplay:10.37,2013-07-30 17:09:00,
2013-07-30 12:14:00,88.7,70.5,30.06,SW,235,8.0,8.3,55,0.00,CLR,,0.00,WeatherDisplay:10.37,2013-07-30 17:14:00,
2013-07-30 12:19:00,88.9,70.1,30.06,WSW,241,5.8,5.8,54,0.00,CLR,,0.00,WeatherDisplay:10.37,2013-07-30 17:19:00,
2013-07-30 12:24:00,89.1,70.3,30.06,WSW,246,10.5,10.5,54,0.00,CLR,,0.00,WeatherDisplay:10.37,2013-07-30 17:24:00,
2013-07-30 12:29:00,89.2,70.4,30.03,SW,216,9.0,13.0,54,0.00,CLR,,0.00,WeatherDisplay:10.37,2013-07-30 17:29:00,
2013-07-30 12:34:00,89.2,69.3,30.03,SSW,211,7.0,9.0,52,0.00,CLR,,0.00,WeatherDisplay:10.37,2013-07-30 17:34:00,
2013-07-30 12:39:00,89.6,69.6,30.03,WSW,243,5.8,5.8,52,0.00,CLR,,0.00,WeatherDisplay:10.37,2013-07-30 17:39:00,
2013-07-30 12:44:00,89.6,69.6,30.03,SW,218,7.0,12.0,52,0.00,CLR,,0.00,WeatherDisplay:10.37,2013-07-30 17:44:00,
2013-07-30 12:49:00,89.6,69.1,30.03,SW,230,8.1,8.1,51,0.00,CLR,,0.00,WeatherDisplay:10.37,2013-07-30 17:49:00,
2013-07-30 12:54:00,89.9,69.9,30.03,SW,232,6.0,10.0,52,0.00,CLR,,0.00,WeatherDisplay:10.37,2013-07-30 17:54:00,
2013-07-30 12:59:00,90.3,69.7,30.03,South,189,11.5,11.5,51,0.00,CLR,,0.00,WeatherDisplay:10.37,2013-07-30 17:59:00,
2013-07-30 13:04:00,90.3,68.6,30.03,SW,223,7.0,11.0,49,0.00,CLR,,0.00,WeatherDisplay:10.37,2013-07-30 18:04:00,
2013-07-30 13:09:00,90.5,69.3,30.03,SW,220,6.0,12.0,50,0.00,CLR,,0.00,WeatherDisplay:10.37,2013-07-30 18:09:00,
2013-07-30 13:14:00,91.0,68.0,30.03,SSW,208,9.2,9.2,47,0.00,CLR,,0.00,WeatherDisplay:10.37,2013-07-30 18:14:00,
2013-07-30 13:19:00,91.0,68.0,30.03,SW,232,6.0,11.0,47,0.00,CLR,,0.00,WeatherDisplay:10.37,2013-07-30 18:19:00,
2013-07-30 13:24:00,91.0,68.6,30.03,ESE,110,6.9,6.9,48,0.00,CLR,,0.00,WeatherDisplay:10.37,2013-07-30 18:24:00,
2013-07-30 13:29:00,91.6,68.5,30.03,SSW,201,6.3,7.2,47,0.00,CLR,,0.00,WeatherDisplay:10.37,2013-07-30 18:29:00,
2013-07-30 13:34:00,91.8,67.4,30.03,SW,218,6.0,11.0,45,0.00,CLR,,0.00,WeatherDisplay:10.37,2013-07-30 18:34:00,
2013-07-30 13:39:00,91.6,67.2,30.03,WSW,238,8.1,8.1,45,0.00,CLR,,0.00,WeatherDisplay:10.37,2013-07-30 18:39:00,
2013-07-30 13:44:00,91.4,66.4,30.03,SW,236,6.0,10.0,44,0.00,CLR,,0.00,WeatherDisplay:10.37,2013-07-30 18:44:00,
2013-07-30 13:49:00,91.4,67.7,30.03,SW,235,6.0,13.0,46,0.00,CLR,,0.00,WeatherDisplay:10.37,2013-07-30 18:49:00,
2013-07-30 13:54:00,91.8,68.0,30.03,SW,226,8.1,8.1,46,0.00,CLR,,0.00,WeatherDisplay:10.37,2013-07-30 18:54:00,
2013-07-30 13:59:00,92.0,67.6,30.03,WSW,243,8.0,11.0,45,0.00,CLR,,0.00,WeatherDisplay:10.37,2013-07-30 18:59:00,
2013-07-30 14:04:00,92.1,67.7,30.03,WSW,237,8.0,13.0,45,0.00,CLR,,0.00,WeatherDisplay:10.37,2013-07-30 19:04:00,
2013-07-30 14:09:00,92.7,68.9,30.03,SSW,211,5.0,8.0,46,0.00,CLR,,0.00,WeatherDisplay:10.37,2013-07-30 19:09:00,
2013-07-30 14:14:00,93.2,68.7,30.03,SW,223,8.1,8.1,45,0.00,CLR,,0.00,WeatherDisplay:10.37,2013-07-30 19:14:00,
2013-07-30 14:19:00,93.4,68.2,30.03,SW,228,8.0,11.0,44,0.00,CLR,,0.00,WeatherDisplay:10.37,2013-07-30 19:19:00,
2013-07-30 14:24:00,93.0,67.9,30.03,SSW,207,7.6,7.6,44,0.00,CLR,,0.00,WeatherDisplay:10.37,2013-07-30 19:24:00,
2013-07-30 14:29:00,93.2,66.7,30.03,SW,228,6.0,10.0,42,0.00,CLR,,0.00,WeatherDisplay:10.37,2013-07-30 19:29:00,
2013-07-30 14:34:00,93.0,66.5,30.03,WSW,249,7.6,7.6,42,0.00,CLR,,0.00,WeatherDisplay:10.37,2013-07-30 19:34:00,
2013-07-30 14:39:00,93.0,67.2,30.03,WSW,239,5.8,5.8,43,0.00,CLR,,0.00,WeatherDisplay:10.37,2013-07-30 19:39:00,
2013-07-30 14:44:00,93.2,68.0,30.00,SW,226,7.0,8.0,44,0.00,CLR,,0.00,WeatherDisplay:10.37,2013-07-30 19:44:00,
2013-07-30 14:49:00,93.6,67.7,30.00,SSW,204,11.5,11.5,43,0.00,CLR,,0.00,WeatherDisplay:10.37,2013-07-30 19:49:00,
2013-07-30 14:54:00,93.6,67.1,30.00,SSW,205,8.0,13.0,42,0.00,CLR,,0.00,WeatherDisplay:10.37,2013-07-30 19:54:00,
2013-07-30 14:59:00,93.6,67.0,30.00,SW,224,8.0,12.0,42,0.00,CLR,,0.00,WeatherDisplay:10.37,2013-07-30 19:59:00,
2013-07-30 15:04:00,93.4,66.9,30.00,WSW,242,5.8,5.8,42,0.00,CLR,,0.00,WeatherDisplay:10.37,2013-07-30 20:04:00,
2013-07-30 15:09:00,93.4,66.9,30.00,SW,220,7.0,10.0,42,0.00,CLR,,0.00,WeatherDisplay:10.37,2013-07-30 20:09:00,
2013-07-30 15:14:00,93.6,67.1,30.00,SW,232,5.0,12.0,42,0.00,CLR,,0.00,WeatherDisplay:10.37,2013-07-30 20:14:00,
2013-07-30 15:19:00,93.6,67.0,30.00,WSW,247,5.8,5.8,42,0.00,CLR,,0.00,WeatherDisplay:10.37,2013-07-30 20:19:00,
2013-07-30 15:24:00,93.9,68.0,30.00,WSW,240,8.0,13.0,43,0.00,CLR,,0.00,WeatherDisplay:10.37,2013-07-30 20:24:00,
2013-07-30 15:29:00,93.9,67.3,30.00,SW,236,9.2,9.2,42,0.00,CLR,,0.00,WeatherDisplay:10.37,2013-07-30 20:29:00,
2013-07-30 15:34:00,94.1,67.5,30.00,East,96,5.8,5.8,42,0.00,CLR,,0.00,WeatherDisplay:10.37,2013-07-30 20:34:00,
2013-07-30 15:39:00,94.3,68.3,30.00,SW,227,6.0,9.0,43,0.00,CLR,,0.00,WeatherDisplay:10.37,2013-07-30 20:39:00,
2013-07-30 15:44:00,94.3,67.0,30.00,West,272,9.2,9.2,41,0.00,CLR,,0.00,WeatherDisplay:10.37,2013-07-30 20:44:00,
2013-07-30 15:49:00,94.8,67.4,30.00,SW,224,8.1,8.1,41,0.00,CLR,,0.00,WeatherDisplay:10.37,2013-07-30 20:49:00,
2013-07-30 15:54:00,95.0,67.6,30.00,SW,214,7.0,12.0,41,0.00,CLR,,0.00,WeatherDisplay:10.37,2013-07-30 20:54:00,
2013-07-30 15:59:00,94.6,65.8,30.00,SW,232,8.1,8.1,39,0.00,CLR,,0.00,WeatherDisplay:10.37,2013-07-30 20:59:00,
2013-07-30 16:04:00,94.3,65.5,30.00,SW,227,5.0,8.0,39,0.00,CLR,,0.00,WeatherDisplay:10.37,2013-07-30 21:04:00,
2013-07-30 16:09:00,93.9,65.9,30.00,South,191,5.8,5.8,40,0.00,CLR,,0.00,WeatherDisplay:10.37,2013-07-30 21:09:00,
2013-07-30 16:15:00,93.9,65.9,30.00,WSW,242,9.2,9.2,40,0.00,CLR,,0.00,WeatherDisplay:10.37,2013-07-30 21:15:00,
2013-07-30 16:20:00,94.3,65.5,30.00,SSE,160,9.2,9.2,39,0.00,CLR,,0.00,WeatherDisplay:10.37,2013-07-30 21:20:00,
2013-07-30 16:25:00,94.6,66.6,30.00,SW,221,8.1,8.1,40,0.00,CLR,,0.00,WeatherDisplay:10.37,2013-07-30 21:25:00,
2013-07-30 16:30:00,94.8,66.7,30.00,SW,235,7.2,7.2,40,0.00,CLR,,0.00,WeatherDisplay:10.37,2013-07-30 21:30:00,
2013-07-30 16:35:00,94.8,66.0,30.00,West,259,8.1,8.1,39,0.00,CLR,,0.00,WeatherDisplay:10.37,2013-07-30 21:35:00,
2013-07-30 16:40:00,94.5,64.9,30.00,WSW,247,6.9,6.9,38,0.00,CLR,,0.00,WeatherDisplay:10.37,2013-07-30 21:40:00,
2013-07-30 16:45:00,94.3,64.8,29.97,SW,235,8.1,8.1,38,0.00,CLR,,0.00,WeatherDisplay:10.37,2013-07-30 21:45:00,
2013-07-30 16:50:00,93.9,65.2,29.97,WSW,251,5.8,5.8,39,0.00,CLR,,0.00,WeatherDisplay:10.37,2013-07-30 21:50:00,
2013-07-30 16:55:00,93.7,65.0,29.97,South,183,11.5,11.5,39,0.00,CLR,,0.00,WeatherDisplay:10.37,2013-07-30 21:55:00,
2013-07-30 17:00:00,93.9,65.2,30.00,SSW,205,8.1,8.1,39,0.00,CLR,,0.00,WeatherDisplay:10.37,2013-07-30 22:00:00,
2013-07-30 17:05:00,93.9,65.2,30.00,SSW,193,9.2,9.2,39,0.00,CLR,,0.00,WeatherDisplay:10.37,2013-07-30 22:05:00,
2013-07-30 17:10:00,93.9,65.2,30.00,SSW,193,5.8,5.8,39,0.00,CLR,,0.00,WeatherDisplay:10.37,2013-07-30 22:10:00,
2013-07-30 17:15:00,94.1,65.4,29.97,SW,235,5.8,5.8,39,0.00,CLR,,0.00,WeatherDisplay:10.37,2013-07-30 22:15:00,
2013-07-30 17:20:00,94.1,65.4,29.97,SW,217,8.1,8.1,39,0.00,CLR,,0.00,WeatherDisplay:10.37,2013-07-30 22:20:00,
2013-07-30 17:25:00,93.9,65.2,29.97,SSW,213,9.2,9.2,39,0.00,CLR,,0.00,WeatherDisplay:10.37,2013-07-30 22:25:00,
2013-07-30 17:30:00,93.9,65.2,29.97,WSW,252,6.7,6.7,39,0.00,CLR,,0.00,WeatherDisplay:10.37,2013-07-30 22:30:00,
2013-07-30 17:35:00,94.1,66.1,29.97,ESE,104,8.1,8.1,40,0.00,CLR,,0.00,WeatherDisplay:10.37,2013-07-30 22:35:00,
2013-07-30 17:40:00,93.9,65.2,29.97,West,269,5.8,5.8,39,0.00,CLR,,0.00,WeatherDisplay:10.37,2013-07-30 22:40:00,
2013-07-30 17:45:00,93.9,64.5,29.97,SW,236,5.8,6.3,38,0.00,CLR,,0.00,WeatherDisplay:10.37,2013-07-30 22:45:00,
2013-07-30 17:50:00,93.6,64.9,29.97,SSW,198,5.8,5.8,39,0.00,CLR,,0.00,WeatherDisplay:10.37,2013-07-30 22:50:00,
2013-07-30 17:55:00,93.4,64.7,29.97,SW,220,8.1,8.1,39,0.00,CLR,,0.00,WeatherDisplay:10.37,2013-07-30 22:55:00,
2013-07-30 18:00:00,93.2,64.6,29.97,ESE,108,5.8,5.8,39,0.00,CLR,,0.00,WeatherDisplay:10.37,2013-07-30 23:00:00,
2013-07-30 18:05:00,93.2,64.6,29.97,WSW,238,5.8,5.8,39,0.00,CLR,,0.00,WeatherDisplay:10.37,2013-07-30 23:05:00,
2013-07-30 18:10:00,93.2,64.6,29.97,SW,231,5.8,5.8,39,0.00,CLR,,0.00,WeatherDisplay:10.37,2013-07-30 23:10:00,
2013-07-30 18:15:00,93.2,64.6,29.97,West,267,8.7,8.7,39,0.00,CLR,,0.00,WeatherDisplay:10.37,2013-07-30 23:15:00,
2013-07-30 18:20:00,93.6,64.1,29.97,SW,222,9.2,9.2,38,0.00,CLR,,0.00,WeatherDisplay:10.37,2013-07-30 23:20:00,
2013-07-30 18:25:00,93.6,64.1,29.97,SSW,201,8.1,8.1,38,0.00,CLR,,0.00,WeatherDisplay:10.37,2013-07-30 23:25:00,
2013-07-30 18:30:00,93.6,64.9,29.97,SSE,168,5.8,5.8,39,0.00,CLR,,0.00,WeatherDisplay:10.37,2013-07-30 23:30:00,
2013-07-30 18:35:00,93.2,63.8,29.97,WSW,247,5.8,5.8,38,0.00,CLR,,0.00,WeatherDisplay:10.37,2013-07-30 23:35:00,
2013-07-30 18:40:00,92.8,63.5,29.97,WSW,239,6.9,6.9,38,0.00,CLR,,0.00,WeatherDisplay:10.37,2013-07-30 23:40:00,
2013-07-30 18:45:00,92.7,64.1,29.97,WSW,241,5.8,5.8,39,0.00,CLR,,0.00,WeatherDisplay:10.37,2013-07-30 23:45:00,
2013-07-30 18:50:00,92.7,64.1,29.97,WSW,257,5.8,5.8,39,0.00,CLR,,0.00,WeatherDisplay:10.37,2013-07-30 23:50:00,
2013-07-30 18:55:00,92.7,64.1,29.97,SW,225,5.8,5.8,39,0.00,CLR,,0.00,WeatherDisplay:10.37,2013-07-30 23:55:00,
2013-07-30 19:00:00,92.8,63.5,29.97,SW,220,8.1,8.1,38,0.00,CLR,,0.00,WeatherDisplay:10.37,2013-07-31 00:00:00,
2013-07-30 19:05:00,92.5,63.2,29.97,SSW,208,6.9,6.9,38,0.00,CLR,,0.00,WeatherDisplay:10.37,2013-07-31 00:05:00,
2013-07-30 19:10:00,92.3,63.0,29.97,SSW,213,5.8,5.8,38,0.00,CLR,,0.00,WeatherDisplay:10.37,2013-07-31 00:10:00,
2013-07-30 19:15:00,92.3,63.0,29.97,SSW,213,5.8,5.8,38,0.00,CLR,,0.00,WeatherDisplay:10.37,2013-07-31 00:15:00,
2013-07-30 19:20:00,92.1,62.9,29.97,WSW,238,5.8,5.8,38,0.00,CLR,,0.00,WeatherDisplay:10.37,2013-07-31 00:20:00,
2013-07-30 19:25:00,91.8,63.3,29.97,SW,235,5.8,5.8,39,0.00,CLR,,0.00,WeatherDisplay:10.37,2013-07-31 00:25:00,
2013-07-30 19:30:00,91.6,62.4,29.97,SSW,212,5.8,5.8,38,0.00,CLR,,0.00,WeatherDisplay:10.37,2013-07-31 00:30:00,
2013-07-30 19:35:00,91.4,62.2,29.97,WSW,245,5.8,5.8,38,0.00,CLR,,0.00,WeatherDisplay:10.37,2013-07-31 00:35:00,
2013-07-30 19:40:00,91.0,61.9,29.97,West,277,4.6,4.6,38,0.00,CLR,,0.00,WeatherDisplay:10.37,2013-07-31 00:40:00,
2013-07-30 19:45:00,90.9,61.7,29.97,WSW,256,8.3,8.3,38,0.00,CLR,,0.00,WeatherDisplay:10.37,2013-07-31 00:45:00,
2013-07-30 19:50:00,90.7,61.6,29.97,West,272,5.8,5.8,38,0.00,CLR,,0.00,WeatherDisplay:10.37,2013-07-31 00:50:00,
2013-07-30 19:55:00,90.5,61.4,29.97,SSW,198,5.8,5.8,38,0.00,CLR,,0.00,WeatherDisplay:10.37,2013-07-31 00:55:00,
2013-07-30 20:00:00,90.1,61.1,29.97,WSW,253,4.0,4.0,38,0.00,CLR,,0.00,WeatherDisplay:10.37,2013-07-31 01:00:00,
2013-07-30 20:05:00,90.0,61.7,29.97,SW,227,5.8,5.8,39,0.00,CLR,,0.00,WeatherDisplay:10.37,2013-07-31 01:05:00,
2013-07-30 20:10:00,89.8,60.8,29.97,West,267,3.5,3.5,38,0.00,CLR,,0.00,WeatherDisplay:10.37,2013-07-31 01:10:00,
2013-07-30 20:15:00,89.6,60.6,29.97,SW,224,4.6,4.6,38,0.00,CLR,,0.00,WeatherDisplay:10.37,2013-07-31 01:15:00,
2013-07-30 20:20:00,89.6,60.6,29.97,SW,232,3.5,4.0,38,0.00,CLR,,0.00,WeatherDisplay:10.37,2013-07-31 01:20:00,
2013-07-30 20:25:00,89.4,61.2,29.97,WSW,241,4.6,4.6,39,0.00,CLR,,0.00,WeatherDisplay:10.37,2013-07-31 01:25:00,
2013-07-30 20:30:00,89.1,60.1,29.97,SW,222,5.8,5.8,38,0.00,CLR,,0.00,WeatherDisplay:10.37,2013-07-31 01:30:00,
2013-07-30 20:35:00,88.9,60.0,29.97,SW,214,4.6,4.6,38,0.00,CLR,,0.00,WeatherDisplay:10.37,2013-07-31 01:35:00,
2013-07-30 20:40:00,88.7,60.6,29.97,SW,235,5.8,5.8,39,0.00,CLR,,0.00,WeatherDisplay:10.37,2013-07-31 01:40:00,
2013-07-30 20:45:00,88.7,59.8,29.97,WSW,237,4.6,4.6,38,0.00,CLR,,0.00,WeatherDisplay:10.37,2013-07-31 01:45:00,
2013-07-30 20:50:00,88.3,60.2,29.97,West,261,3.5,3.5,39,0.00,CLR,,0.00,WeatherDisplay:10.37,2013-07-31 01:50:00,
2013-07-30 20:55:00,88.2,60.1,29.97,SW,218,4.6,4.6,39,0.00,CLR,,0.00,WeatherDisplay:10.37,2013-07-31 01:55:00,
2013-07-30 21:00:00,88.0,59.9,29.97,West,265,4.0,4.0,39,0.00,CLR,,0.00,WeatherDisplay:10.37,2013-07-31 02:00:00,
2013-07-30 21:05:00,87.6,59.6,29.97,WSW,257,3.5,3.5,39,0.00,CLR,,0.00,WeatherDisplay:10.37,2013-07-31 02:05:00,
2013-07-30 21:10:00,87.6,59.6,29.97,West,262,3.5,3.6,39,0.00,CLR,,0.00,WeatherDisplay:10.37,2013-07-31 02:10:00,
2013-07-30 21:15:00,87.3,59.3,29.97,SW,229,3.5,3.5,39,0.00,CLR,,0.00,WeatherDisplay:10.37,2013-07-31 02:15:00,
2013-07-30 21:20:00,87.3,58.6,29.97,WSW,254,3.6,4.0,38,0.00,CLR,,0.00,WeatherDisplay:10.37,2013-07-31 02:20:00,
2013-07-30 21:25:00,87.1,59.1,29.97,SW,236,5.8,5.8,39,0.00,CLR,,0.00,WeatherDisplay:10.37,2013-07-31 02:25:00,
2013-07-30 21:30:00,86.9,59.0,29.97,WSW,252,3.6,3.6,39,0.00,CLR,,0.00,WeatherDisplay:10.37,2013-07-31 02:30:00,
2013-07-30 21:35:00,86.5,58.6,29.97,WSW,251,3.5,3.5,39,0.00,CLR,,0.00,WeatherDisplay:10.37,2013-07-31 02:35:00,
2013-07-30 21:40:00,86.5,58.6,29.97,SW,233,3.5,3.5,39,0.00,CLR,,0.00,WeatherDisplay:10.37,2013-07-31 02:40:00,
2013-07-30 21:46:00,86.2,58.3,29.97,WSW,253,3.5,3.5,39,0.00,CLR,,0.00,WeatherDisplay:10.37,2013-07-31 02:46:00,
2013-07-30 21:51:00,86.0,58.9,29.97,WSW,247,3.5,3.6,40,0.00,CLR,,0.00,WeatherDisplay:10.37,2013-07-31 02:51:00,
2013-07-30 21:56:00,85.8,58.7,29.97,SW,232,3.5,3.5,40,0.00,CLR,,0.00,WeatherDisplay:10.37,2013-07-31 02:56:00,
2013-07-30 22:01:00,85.8,58.7,30.00,WSW,239,3.5,3.6,40,0.00,CLR,,0.00,WeatherDisplay:10.37,2013-07-31 03:01:00,
2013-07-30 22:06:00,85.8,58.7,30.00,SW,236,3.5,3.5,40,0.00,CLR,,0.00,WeatherDisplay:10.37,2013-07-31 03:06:00,
2013-07-30 22:11:00,85.5,58.4,30.00,WSW,244,3.5,3.5,40,0.00,CLR,,0.00,WeatherDisplay:10.37,2013-07-31 03:11:00,
2013-07-30 22:16:00,85.1,58.8,30.00,WSW,238,3.6,3.6,41,0.00,CLR,,0.00,WeatherDisplay:10.37,2013-07-31 03:16:00,
2013-07-30 22:21:00,84.9,58.6,30.00,WSW,240,3.5,3.5,41,0.00,CLR,,0.00,WeatherDisplay:10.37,2013-07-31 03:21:00,
2013-07-30 22:26:00,84.7,58.4,30.00,SW,221,3.5,3.5,41,0.00,CLR,,0.00,WeatherDisplay:10.37,2013-07-31 03:26:00,
2013-07-30 22:31:00,84.4,58.8,30.00,SSW,207,3.5,3.5,42,0.00,CLR,,0.00,WeatherDisplay:10.37,2013-07-31 03:31:00,
2013-07-30 22:36:00,84.4,58.8,30.00,SW,233,5.8,5.8,42,0.00,CLR,,0.00,WeatherDisplay:10.37,2013-07-31 03:36:00,
2013-07-30 22:41:00,84.4,58.8,30.00,SW,221,5.8,5.8,42,0.00,CLR,,0.00,WeatherDisplay:10.37,2013-07-31 03:41:00,
2013-07-30 22:46:00,84.2,58.6,30.00,WSW,244,3.5,3.6,42,0.00,CLR,,0.00,WeatherDisplay:10.37,2013-07-31 03:46:00,
2013-07-30 22:51:00,84.2,58.6,30.00,SSW,210,3.5,3.6,42,0.00,CLR,,0.00,WeatherDisplay:10.37,2013-07-31 03:51:00,
2013-07-30 22:56:00,84.0,58.5,30.00,South,187,3.5,3.5,42,0.00,CLR,,0.00,WeatherDisplay:10.37,2013-07-31 03:56:00,
2013-07-30 23:01:00,83.8,58.3,30.00,SW,219,4.6,4.6,42,0.00,CLR,,0.00,WeatherDisplay:10.37,2013-07-31 04:01:00,
2013-07-30 23:02:00,83.7,58.1,30.00,SSW,211,3.5,3.6,42,0.00,CLR,,0.00,WeatherDisplay:10.37,2013-07-31 04:02:00,
2013-07-30 23:07:00,83.5,58.6,30.00,SW,224,4.6,4.6,43,0.00,CLR,,0.00,WeatherDisplay:10.37,2013-07-31 04:07:00,
2013-07-30 23:12:00,83.5,58.6,30.00,SW,222,3.5,3.5,43,0.00,CLR,,0.00,WeatherDisplay:10.37,2013-07-31 04:12:00,
2013-07-30 23:17:00,83.3,59.1,30.00,SSW,195,3.5,3.6,44,0.00,CLR,,0.00,WeatherDisplay:10.37,2013-07-31 04:17:00,
2013-07-30 23:22:00,83.1,58.9,30.00,WSW,250,3.5,3.6,44,0.00,CLR,,0.00,WeatherDisplay:10.37,2013-07-31 04:22:00,
2013-07-30 23:27:00,82.8,59.3,29.97,SW,226,0.0,0.0,45,0.00,CLR,,0.00,WeatherDisplay:10.37,2013-07-31 04:27:00,
2013-07-30 23:32:00,82.4,58.9,29.97,SSW,192,0.0,0.0,45,0.00,CLR,,0.00,WeatherDisplay:10.37,2013-07-31 04:32:00,
2013-07-30 23:37:00,82.2,59.4,29.97,SE,137,0.0,0.0,46,0.00,CLR,,0.00,WeatherDisplay:10.37,2013-07-31 04:37:00,
2013-07-30 23:42:00,82.0,59.2,30.00,South,180,0.0,0.0,46,0.00,CLR,,0.00,WeatherDisplay:10.37,2013-07-31 04:42:00,
2013-07-30 23:47:00,82.0,59.2,30.00,South,180,0.0,0.0,46,0.00,CLR,,0.00,WeatherDisplay:10.37,2013-07-31 04:47:00,
2013-07-30 23:52:00,81.7,58.9,30.00,South,180,0.0,0.0,46,0.00,CLR,,0.00,WeatherDisplay:10.37,2013-07-31 04:52:00,
2013-07-30 23:57:00,81.7,58.9,30.00,South,179,0.0,0.0,46,0.00,CLR,,0.00,WeatherDisplay:10.37,2013-07-31 04:57:00,